Weather History for Bishop, CA

Change the Weather History Date:

Sunday, June 30, 2013

  Actual Average Record
Temperature  
Mean Temperature 85 °F 75 °F  
Max Temperature 109 °F 96 °F 109 °F (2013)
Min Temperature 61 °F 54 °F 41 °F (1997)
Degree Days  
Heating Degree Days 0 0  
Month to date heating degree days 0 17  
Since 1 June heating degree days 0 19  
Since 1 July heating degree days 3851 4177  
Cooling Degree Days 20 10  
Month to date cooling degree days 330 214  
Year to date cooling degree days 416 282  
Since 1 June cooling degree days 330 214  
Growing Degree Days 34 (Base 50)    
Moisture  
Dew Point 35 °F    
Average Humidity 25    
Maximum Humidity 43    
Minimum Humidity 6    
Precipitation  
Precipitation 0.00 in 0.00 in 0.14 in (1977)
Month to date precipitation T 0.19  
Year to date precipitation 0.47 3.07  
Snow  
Snow 0.00 in 0.00 in - ()
Month to date snowfall 0.0 0.0  
Since 1 June snowfall 0.0 0.0  
Since 1 July snowfall 2.8 6.8  
Snow Depth 0.00 in    
Sea Level Pressure  
Sea Level Pressure 29.78 in    
Wind  
Wind Speed 8 mph (WNW)    
Max Wind Speed 24 mph    
Max Gust Speed 30 mph    
Visibility 10 miles    
Events      
T = Trace of Precipitation, MM = Missing Value Source: NWS Daily Summary

Daily Weather History Graph

Daily Weather History Graph

Search for Another Location

Airport:

Trip Planner

Search our weather history database for the weather conditions in past years. The results will help you decide how hot, cold, wet, or windy it might be!

Date:

Astronomy

Jun. 30, 2013 Rise Set
Actual Time 5:36 AM PDT 8:18 PM PDT
Civil Twilight 5:05 AM PDT 8:49 PM PDT
Nautical Twilight 4:26 AM PDT 9:27 PM PDT
Astronomical Twilight 3:43 AM PDT 10:11 PM PDT
Moon 12:31 AM PDT (6/30) 1:43 PM PDT (6/30)
Length of Visible Light 15h 43m
Length of Day
14h 42m
Last Quarter, 44% of the Moon is Illuminated
Jun 30
Last Quarter
Jul 8
New
Jul 15
First Quarter
Jul 22
Full
Jul 29
Last Quarter

Hourly Weather History & Observations

Time (PDT) Temp. Dew Point Humidity Pressure Visibility Wind Dir Wind Speed Gust Speed Precip Events Conditions
12:56 AM 75.9 °F 37.0 °F 24% 29.83 in 10.0 mi West 3.5 mph - N/A   Clear
1:56 AM 75.0 °F 37.9 °F 26% 29.82 in 10.0 mi West 3.5 mph - N/A   Clear
2:56 AM 71.1 °F 37.9 °F 30% 29.82 in 10.0 mi Calm Calm - N/A   Clear
3:56 AM 66.9 °F 39.9 °F 37% 29.82 in 10.0 mi WNW 3.5 mph - N/A   Clear
4:56 AM 66.0 °F 42.1 °F 42% 29.83 in 10.0 mi WNW 6.9 mph - N/A   Clear
5:56 AM 62.1 °F 39.9 °F 44% 29.86 in 10.0 mi NNW 3.5 mph - N/A   Clear
6:56 AM 68.0 °F 42.1 °F 39% 29.86 in 10.0 mi NNW 3.5 mph - N/A   Clear
7:56 AM 79.0 °F 41.0 °F 26% 29.86 in 10.0 mi NW 3.5 mph - N/A   Clear
8:56 AM 87.1 °F 39.0 °F 18% 29.84 in 10.0 mi Calm Calm - N/A   Clear
9:56 AM 91.9 °F 37.0 °F 15% 29.82 in 10.0 mi WNW 3.5 mph - N/A   Clear
10:56 AM 96.1 °F 35.1 °F 12% 29.80 in 10.0 mi Variable 3.5 mph - N/A   Clear
11:56 AM 100.0 °F 32.0 °F 9% 29.78 in 10.0 mi Calm Calm - N/A   Clear
12:56 PM 104.0 °F 28.0 °F 7% 29.75 in 10.0 mi SSE 23.0 mph 29.9 mph N/A   Clear
1:56 PM 107.1 °F 26.1 °F 6% 29.73 in 10.0 mi SE 13.8 mph 24.2 mph N/A   Clear
2:56 PM 107.1 °F 26.1 °F 6% 29.71 in 10.0 mi SSE 11.5 mph 21.9 mph N/A   Clear
3:56 PM 108.0 °F 27.0 °F 6% 29.71 in 10.0 mi South 12.7 mph - N/A   Clear
4:56 PM 106.0 °F 27.0 °F 6% 29.69 in 10.0 mi SSW 4.6 mph - N/A   Clear
5:56 PM 105.1 °F 30.0 °F 7% 29.70 in 10.0 mi West 19.6 mph 26.5 mph N/A   Clear
6:56 PM 102.0 °F 30.0 °F 8% 29.70 in 10.0 mi West 12.7 mph 20.7 mph N/A   Clear
7:56 PM 99.0 °F 28.9 °F 8% 29.69 in 10.0 mi WSW 11.5 mph - N/A   Clear
8:56 PM 93.0 °F 33.1 °F 12% 29.72 in 10.0 mi North 13.8 mph 20.7 mph N/A   Clear
9:56 PM 84.9 °F 39.9 °F 20% 29.75 in 10.0 mi North 9.2 mph - N/A   Clear
10:56 PM 82.9 °F 37.9 °F 20% 29.77 in 10.0 mi NW 4.6 mph - N/A   Clear
11:56 PM 79.0 °F 39.0 °F 24% 29.78 in 10.0 mi NNW 6.9 mph - N/A   Clear